#Datum;Uhrzeit;WR;Pac;DaySum;Status;WR;Pac;DaySum;Status;Pdc1;Udc;Temp;WR;Pac;DaySum;Status;Pdc1;Udc;Temp;WR;Pac;DaySum;Status;Pdc1;Udc;Temp;WR;Pac;DaySum;Status;Pdc1;Pdc2;Udc1;Udc2;Temp;WR;Pac;DaySum;Status;Pdc1;Pdc2;Udc1;Udc2;Temp;WR;Pac;DaySum;Status;Pdc1;Udc;Temp;WR;Pac;DaySum;Status;Pdc1;Udc;Temp;WR;Pac;DaySum;Status;Pdc1;Udc;Temp
12.01.20;23:55:00;1;224;17421;0;2;0;14333;0;0;0;0;3;0;9690;0;0;0;0;4;0;10789;0;0;0;0;5;0;37239;0;0;0;0;0;0;6;0;28319;0;0;0;0;0;0;7;0;26584;0;0;0;0;8;0;25929;0;0;0;0;9;0;14056;0;0;0;0
12.01.20;23:50:00;1;338;17401;0;2;0;14333;0;0;0;0;3;0;9690;0;0;0;0;4;0;10789;0;0;0;0;5;0;37239;0;0;0;0;0;0;6;0;28319;0;0;0;0;0;0;7;0;26584;0;0;0;0;8;0;25929;0;0;0;0;9;0;14056;0;0;0;0
12.01.20;23:45:00;1;308;17372;0;2;0;14333;0;0;0;0;3;0;9690;0;0;0;0;4;0;10789;0;0;0;0;5;0;37239;0;0;0;0;0;0;6;0;28319;0;0;0;0;0;0;7;0;26584;0;0;0;0;8;0;25929;0;0;0;0;9;0;14056;0;0;0;0
12.01.20;23:40:00;1;362;17346;0;2;0;14333;0;0;0;0;3;0;9690;0;0;0;0;4;0;10789;0;0;0;0;5;0;37239;0;0;0;0;0;0;6;0;28319;0;0;0;0;0;0;7;0;26584;0;0;0;0;8;0;25929;0;0;0;0;9;0;14056;0;0;0;0
12.01.20;23:35:00;1;369;17316;0;2;0;14333;0;0;0;0;3;0;9690;0;0;0;0;4;0;10789;0;0;0;0;5;0;37239;0;0;0;0;0;0;6;0;28319;0;0;0;0;0;0;7;0;26584;0;0;0;0;8;0;25929;0;0;0;0;9;0;14056;0;0;0;0
12.01.20;23:30:00;1;372;17285;0;2;0;14333;0;0;0;0;3;0;9690;0;0;0;0;4;0;10789;0;0;0;0;5;0;37239;0;0;0;0;0;0;6;0;28319;0;0;0;0;0;0;7;0;26584;0;0;0;0;8;0;25929;0;0;0;0;9;0;14056;0;0;0;0
12.01.20;23:25:00;1;328;17254;0;2;0;14333;0;0;0;0;3;0;9690;0;0;0;0;4;0;10789;0;0;0;0;5;0;37239;0;0;0;0;0;0;6;0;28319;0;0;0;0;0;0;7;0;26584;0;0;0;0;8;0;25929;0;0;0;0;9;0;14056;0;0;0;0
12.01.20;23:20:00;1;333;17227;0;2;0;14333;0;0;0;0;3;0;9690;0;0;0;0;4;0;10789;0;0;0;0;5;0;37239;0;0;0;0;0;0;6;0;28319;0;0;0;0;0;0;7;0;26584;0;0;0;0;8;0;25929;0;0;0;0;9;0;14056;0;0;0;0
12.01.20;23:15:00;1;293;17202;0;2;0;14333;0;0;0;0;3;0;9690;0;0;0;0;4;0;10789;0;0;0;0;5;0;37239;0;0;0;0;0;0;6;0;28319;0;0;0;0;0;0;7;0;26584;0;0;0;0;8;0;25929;0;0;0;0;9;0;14056;0;0;0;0
12.01.20;23:10:00;1;282;17177;0;2;0;14333;0;0;0;0;3;0;9690;0;0;0;0;4;0;10789;0;0;0;0;5;0;37239;0;0;0;0;0;0;6;0;28319;0;0;0;0;0;0;7;0;26584;0;0;0;0;8;0;25929;0;0;0;0;9;0;14056;0;0;0;0
12.01.20;23:07:00;1;261;17167;0;2;0;14333;0;0;0;0;3;0;9690;0;0;0;0;4;0;10789;0;0;0;0;5;0;37239;0;0;0;0;0;0;6;0;28319;0;0;0;0;0;0;7;0;26584;0;0;0;0;8;0;25929;0;0;0;0;9;0;14056;0;0;0;0
12.01.20;23:00:00;1;309;17132;0;2;0;14333;0;0;0;0;3;0;9690;0;0;0;0;4;0;10789;0;0;0;0;5;0;37239;0;0;0;0;0;0;6;0;28319;0;0;0;0;0;0;7;0;26584;0;0;0;0;8;0;25929;0;0;0;0;9;0;14056;0;0;0;0
12.01.20;22:55:00;1;388;17105;0;2;0;14333;0;0;0;0;3;0;9690;0;0;0;0;4;0;10789;0;0;0;0;5;0;37239;2;0;0;0;0;0;6;0;28319;2;0;0;0;0;0;7;0;26584;0;0;0;0;8;0;25929;0;0;0;0;9;0;14056;0;0;0;0
12.01.20;22:50:00;1;379;17073;0;2;0;14333;0;0;0;0;3;0;9690;0;0;0;0;4;0;10789;0;0;0;0;5;0;37239;2;0;0;0;0;0;6;0;28319;2;0;0;0;0;0;7;0;26584;0;0;0;0;8;0;25929;0;0;0;0;9;0;14056;0;0;0;0
12.01.20;22:45:00;1;399;17041;0;2;0;14333;0;0;0;0;3;0;9690;0;0;0;0;4;0;10789;0;0;0;0;5;0;37239;2;0;0;0;0;0;6;0;28319;2;0;0;0;0;0;7;0;26584;0;0;0;0;8;0;25929;0;0;0;0;9;0;14056;0;0;0;0
12.01.20;22:40:00;1;434;17008;0;2;0;14333;0;0;0;0;3;0;9690;0;0;0;0;4;0;10789;0;0;0;0;5;0;37239;2;0;0;0;0;0;6;0;28319;2;0;0;0;0;0;7;0;26584;0;0;0;0;8;0;25929;0;0;0;0;9;0;14056;0;0;0;0
12.01.20;22:35:00;1;436;16971;0;2;0;14333;0;0;0;0;3;0;9690;0;0;0;0;4;0;10789;0;0;0;0;5;0;37239;2;0;0;0;0;0;6;0;28319;2;0;0;0;0;0;7;0;26584;0;0;0;0;8;0;25929;0;0;0;0;9;0;14056;0;0;0;0
12.01.20;22:30:00;1;370;16934;0;2;0;14333;0;0;0;0;3;0;9690;0;0;0;0;4;0;10789;0;0;0;0;5;0;37239;2;0;0;0;0;0;6;0;28319;2;0;0;0;0;0;7;0;26584;0;0;0;0;8;0;25929;0;0;0;0;9;0;14056;0;0;0;0
12.01.20;22:25:00;1;353;16903;0;2;0;14333;0;0;0;0;3;0;9690;0;0;0;0;4;0;10789;0;0;0;0;5;0;37239;2;0;0;0;0;0;6;0;28319;2;0;0;0;0;0;7;0;26584;0;0;0;0;8;0;25929;0;0;0;0;9;0;14056;0;0;0;0
12.01.20;22:20:00;1;375;16874;0;2;0;14333;0;0;0;0;3;0;9690;0;0;0;0;4;0;10789;0;0;0;0;5;0;37239;2;0;0;0;0;0;6;0;28319;2;0;0;0;0;0;7;0;26584;0;0;0;0;8;0;25929;0;0;0;0;9;0;14056;0;0;0;0
12.01.20;22:15:00;1;376;16843;0;2;0;14333;0;0;0;0;3;0;9690;0;0;0;0;4;0;10789;0;0;0;0;5;0;37239;2;0;0;0;0;0;6;0;28319;2;0;0;0;0;0;7;0;26584;0;0;0;0;8;0;25929;0;0;0;0;9;0;14056;0;0;0;0
12.01.20;22:10:00;1;377;16812;0;2;0;14333;0;0;0;0;3;0;9690;0;0;0;0;4;0;10789;0;0;0;0;5;0;37239;2;0;0;0;0;0;6;0;28319;2;0;0;0;0;0;7;0;26584;0;0;0;0;8;0;25929;0;0;0;0;9;0;14056;0;0;0;0
12.01.20;22:05:00;1;382;16780;0;2;0;14333;0;0;0;0;3;0;9690;0;0;0;0;4;0;10789;0;0;0;0;5;0;37239;2;0;0;0;0;0;6;0;28319;2;0;0;0;0;0;7;0;26584;0;0;0;0;8;0;25929;0;0;0;0;9;0;14056;0;0;0;0
12.01.20;22:00:00;1;473;16747;0;2;0;14333;0;0;0;0;3;0;9690;0;0;0;0;4;0;10789;0;0;0;0;5;0;37239;2;0;0;0;0;0;6;0;28319;2;0;0;0;0;0;7;0;26584;0;0;0;0;8;0;25929;0;0;0;0;9;0;14056;0;0;0;0
12.01.20;21:55:00;1;474;16707;0;2;0;14333;0;0;0;0;3;0;9690;0;0;0;0;4;0;10789;0;0;0;0;5;0;37239;2;0;0;0;0;0;6;0;28319;2;0;0;0;0;0;7;0;26584;0;0;0;0;8;0;25929;0;0;0;0;9;0;14056;0;0;0;0
12.01.20;21:50:00;1;542;16667;0;2;0;14333;0;0;0;0;3;0;9690;0;0;0;0;4;0;10789;0;0;0;0;5;0;37239;2;0;0;0;0;0;6;0;28319;2;0;0;0;0;0;7;0;26584;0;0;0;0;8;0;25929;0;0;0;0;9;0;14056;0;0;0;0
12.01.20;21:45:00;1;530;16621;0;2;0;14333;0;0;0;0;3;0;9690;0;0;0;0;4;0;10789;0;0;0;0;5;0;37239;2;0;0;0;0;0;6;0;28319;2;0;0;0;0;0;7;0;26584;0;0;0;0;8;0;25929;0;0;0;0;9;0;14056;0;0;0;0
12.01.20;21:40:00;1;523;16577;0;2;0;14333;0;0;0;0;3;0;9690;0;0;0;0;4;0;10789;0;0;0;0;5;0;37239;2;0;0;0;0;0;6;0;28319;2;0;0;0;0;0;7;0;26584;0;0;0;0;8;0;25929;0;0;0;0;9;0;14056;0;0;0;0
12.01.20;21:35:00;1;479;16533;0;2;0;14333;0;0;0;0;3;0;9690;0;0;0;0;4;0;10789;0;0;0;0;5;0;37239;2;0;0;0;0;0;6;0;28319;2;0;0;0;0;0;7;0;26584;0;0;0;0;8;0;25929;0;0;0;0;9;0;14056;0;0;0;0
12.01.20;21:30:00;1;483;16493;0;2;0;14333;0;0;0;0;3;0;9690;0;0;0;0;4;0;10789;0;0;0;0;5;0;37239;2;0;0;0;0;0;6;0;28319;2;0;0;0;0;0;7;0;26584;0;0;0;0;8;0;25929;0;0;0;0;9;0;14056;0;0;0;0
12.01.20;21:25:00;1;526;16453;0;2;0;14333;0;0;0;0;3;0;9690;0;0;0;0;4;0;10789;0;0;0;0;5;0;37239;2;0;0;0;0;0;6;0;28319;2;0;0;0;0;0;7;0;26584;0;0;0;0;8;0;25929;0;0;0;0;9;0;14056;0;0;0;0
12.01.20;21:20:00;1;491;16408;0;2;0;14333;0;0;0;0;3;0;9690;0;0;0;0;4;0;10789;0;0;0;0;5;0;37239;2;0;0;0;0;0;6;0;28319;2;0;0;0;0;0;7;0;26584;0;0;0;0;8;0;25929;0;0;0;0;9;0;14056;0;0;0;0
12.01.20;21:15:00;1;420;16367;0;2;0;14333;0;0;0;0;3;0;9690;0;0;0;0;4;0;10789;0;0;0;0;5;0;37239;2;0;0;0;0;0;6;0;28319;2;0;0;0;0;0;7;0;26584;0;0;0;0;8;0;25929;0;0;0;0;9;0;14056;0;0;0;0
12.01.20;21:10:00;1;424;16332;0;2;0;14333;0;0;0;0;3;0;9690;0;0;0;0;4;0;10789;0;0;0;0;5;0;37239;2;0;0;0;0;0;6;0;28319;2;0;0;0;0;0;7;0;26584;0;0;0;0;8;0;25929;0;0;0;0;9;0;14056;0;0;0;0
12.01.20;21:05:00;1;431;16297;0;2;0;14333;0;0;0;0;3;0;9690;0;0;0;0;4;0;10789;0;0;0;0;5;0;37239;2;0;0;0;0;0;6;0;28319;2;0;0;0;0;0;7;0;26584;0;0;0;0;8;0;25929;0;0;0;0;9;0;14056;0;0;0;0
12.01.20;21:00:00;1;494;16261;0;2;0;14333;0;0;0;0;3;0;9690;0;0;0;0;4;0;10789;0;0;0;0;5;0;37239;2;0;0;0;0;0;6;0;28319;2;0;0;0;0;0;7;0;26584;0;0;0;0;8;0;25929;0;0;0;0;9;0;14056;0;0;0;0
12.01.20;20:55:00;1;552;16219;0;2;0;14333;0;0;0;0;3;0;9690;0;0;0;0;4;0;10789;0;0;0;0;5;0;37239;2;0;0;0;0;0;6;0;28319;2;0;0;0;0;0;7;0;26584;0;0;0;0;8;0;25929;0;0;0;0;9;0;14056;0;0;0;0
12.01.20;20:50:00;1;510;16174;0;2;0;14333;0;0;0;0;3;0;9690;0;0;0;0;4;0;10789;0;0;0;0;5;0;37239;2;0;0;0;0;0;6;0;28319;2;0;0;0;0;0;7;0;26584;0;0;0;0;8;0;25929;0;0;0;0;9;0;14056;0;0;0;0
12.01.20;20:45:00;1;502;16131;0;2;0;14333;0;0;0;0;3;0;9690;0;0;0;0;4;0;10789;0;0;0;0;5;0;37239;2;0;0;0;0;0;6;0;28319;2;0;0;0;0;0;7;0;26584;0;0;0;0;8;0;25929;0;0;0;0;9;0;14056;0;0;0;0
12.01.20;20:40:00;1;458;16090;0;2;0;14333;0;0;0;0;3;0;9690;0;0;0;0;4;0;10789;0;0;0;0;5;0;37239;2;0;0;0;0;0;6;0;28319;2;0;0;0;0;0;7;0;26584;0;0;0;0;8;0;25929;0;0;0;0;9;0;14056;0;0;0;0
12.01.20;20:35:00;1;487;16050;0;2;0;14333;0;0;0;0;3;0;9690;0;0;0;0;4;0;10789;0;0;0;0;5;0;37239;2;0;0;0;0;0;6;0;28319;2;0;0;0;0;0;7;0;26584;0;0;0;0;8;0;25929;0;0;0;0;9;0;14056;0;0;0;0
12.01.20;20:30:00;1;491;16010;0;2;0;14333;0;0;0;0;3;0;9690;0;0;0;0;4;0;10789;0;0;0;0;5;0;37239;2;0;0;0;0;0;6;0;28319;2;0;0;0;0;0;7;0;26584;0;0;0;0;8;0;25929;0;0;0;0;9;0;14056;0;0;0;0
12.01.20;20:25:00;1;493;15969;0;2;0;14333;0;0;0;0;3;0;9690;0;0;0;0;4;0;10789;0;0;0;0;5;0;37239;2;0;0;0;0;0;6;0;28319;2;0;0;0;0;0;7;0;26584;0;0;0;0;8;0;25929;0;0;0;0;9;0;14056;0;0;0;0
12.01.20;20:20:00;1;495;15928;0;2;0;14333;0;0;0;0;3;0;9690;0;0;0;0;4;0;10789;0;0;0;0;5;0;37239;2;0;0;0;0;0;6;0;28319;2;0;0;0;0;0;7;0;26584;0;0;0;0;8;0;25929;0;0;0;0;9;0;14056;0;0;0;0
12.01.20;20:15:00;1;472;15887;0;2;0;14333;0;0;0;0;3;0;9690;0;0;0;0;4;0;10789;0;0;0;0;5;0;37239;2;0;0;0;0;0;6;0;28319;2;0;0;0;0;0;7;0;26584;0;0;0;0;8;0;25929;0;0;0;0;9;0;14056;0;0;0;0
12.01.20;20:10:00;1;474;15847;0;2;0;14333;0;0;0;0;3;0;9690;0;0;0;0;4;0;10789;0;0;0;0;5;0;37239;2;0;0;0;0;0;6;0;28319;2;0;0;0;0;0;7;0;26584;0;0;0;0;8;0;25929;0;0;0;0;9;0;14056;0;0;0;0
12.01.20;20:05:00;1;426;15807;0;2;0;14333;0;0;0;0;3;0;9690;0;0;0;0;4;0;10789;0;0;0;0;5;0;37239;2;0;0;0;0;0;6;0;28319;2;0;0;0;0;0;7;0;26584;0;0;0;0;8;0;25929;0;0;0;0;9;0;14056;0;0;0;0
12.01.20;20:00:00;1;486;15771;0;2;0;14333;0;0;0;0;3;0;9690;0;0;0;0;4;0;10789;0;0;0;0;5;0;37239;2;0;0;0;0;0;6;0;28319;2;0;0;0;0;0;7;0;26584;0;0;0;0;8;0;25929;0;0;0;0;9;0;14056;0;0;0;0
12.01.20;19:55:00;1;485;15731;0;2;0;14333;0;0;0;0;3;0;9690;0;0;0;0;4;0;10789;0;0;0;0;5;0;37239;2;0;0;0;0;0;6;0;28319;2;0;0;0;0;0;7;0;26584;0;0;0;0;8;0;25929;0;0;0;0;9;0;14056;0;0;0;0
12.01.20;19:50:00;1;541;15690;0;2;0;14333;0;0;0;0;3;0;9690;0;0;0;0;4;0;10789;0;0;0;0;5;0;37239;2;0;0;0;0;0;6;0;28319;2;0;0;0;0;0;7;0;26584;0;0;0;0;8;0;25929;0;0;0;0;9;0;14056;0;0;0;0
12.01.20;19:45:00;1;475;15645;0;2;0;14333;0;0;0;0;3;0;9690;0;0;0;0;4;0;10789;0;0;0;0;5;0;37239;2;0;0;0;0;0;6;0;28319;2;0;0;0;0;0;7;0;26584;0;0;0;0;8;0;25929;0;0;0;0;9;0;14056;0;0;0;0
12.01.20;19:40:00;1;449;15606;0;2;0;14333;0;0;0;0;3;0;9690;0;0;0;0;4;0;10789;0;0;0;0;5;0;37239;2;0;0;0;0;0;6;0;28319;2;0;0;0;0;0;7;0;26584;0;0;0;0;8;0;25929;0;0;0;0;9;0;14056;0;0;0;0
12.01.20;19:35:00;1;523;15568;0;2;0;14333;0;0;0;0;3;0;9690;0;0;0;0;4;0;10789;0;0;0;0;5;0;37239;2;0;0;0;0;0;6;0;28319;2;0;0;0;0;0;7;0;26584;0;0;0;0;8;0;25929;0;0;0;0;9;0;14056;0;0;0;0
12.01.20;19:30:00;1;447;15526;0;2;0;14333;0;0;0;0;3;0;9690;0;0;0;0;4;0;10789;0;0;0;0;5;0;37239;2;0;0;0;0;0;6;0;28319;2;0;0;0;0;0;7;0;26584;0;0;0;0;8;0;25929;0;0;0;0;9;0;14056;0;0;0;0
12.01.20;19:25:00;1;445;15489;0;2;0;14333;0;0;0;0;3;0;9690;0;0;0;0;4;0;10789;0;0;0;0;5;0;37239;2;0;0;0;0;0;6;0;28319;2;0;0;0;0;0;7;0;26584;0;0;0;0;8;0;25929;0;0;0;0;9;0;14056;0;0;0;0
12.01.20;19:20:00;1;459;15452;0;2;0;14333;0;0;0;0;3;0;9690;0;0;0;0;4;0;10789;0;0;0;0;5;0;37239;2;0;0;0;0;0;6;0;28319;2;0;0;0;0;0;7;0;26584;0;0;0;0;8;0;25929;0;0;0;0;9;0;14056;0;0;0;0
12.01.20;19:15:00;1;394;15414;0;2;0;14333;0;0;0;0;3;0;9690;0;0;0;0;4;0;10789;0;0;0;0;5;0;37239;2;0;0;0;0;0;6;0;28319;2;0;0;0;0;0;7;0;26584;0;0;0;0;8;0;25929;0;0;0;0;9;0;14056;0;0;0;0
12.01.20;19:10:00;1;424;15380;0;2;0;14333;0;0;0;0;3;0;9690;0;0;0;0;4;0;10789;0;0;0;0;5;0;37239;2;0;0;0;0;0;6;0;28319;2;0;0;0;0;0;7;0;26584;0;0;0;0;8;0;25929;0;0;0;0;9;0;14056;0;0;0;0
12.01.20;19:05:00;1;431;15345;0;2;0;14333;0;0;0;0;3;0;9690;0;0;0;0;4;0;10789;0;0;0;0;5;0;37239;2;0;0;0;0;0;6;0;28319;2;0;0;0;0;0;7;0;26584;0;0;0;0;8;0;25929;0;0;0;0;9;0;14056;0;0;0;0
12.01.20;19:00:00;1;498;15309;0;2;0;14333;0;0;0;0;3;0;9690;0;0;0;0;4;0;10789;0;0;0;0;5;0;37239;2;0;0;0;0;0;6;0;28319;2;0;0;0;0;0;7;0;26584;0;0;0;0;8;0;25929;0;0;0;0;9;0;14056;0;0;0;0
12.01.20;18:55:00;1;485;15267;0;2;0;14333;0;0;0;0;3;0;9690;0;0;0;0;4;0;10789;0;0;0;0;5;0;37239;2;0;0;0;0;0;6;0;28319;2;0;0;0;0;0;7;0;26584;0;0;0;0;8;0;25929;0;0;0;0;9;0;14056;0;0;0;0
12.01.20;18:50:00;1;457;15228;0;2;0;14333;0;0;0;0;3;0;9690;0;0;0;0;4;0;10789;0;0;0;0;5;0;37239;2;0;0;0;0;0;6;0;28319;2;0;0;0;0;0;7;0;26584;0;0;0;0;8;0;25929;0;0;0;0;9;0;14056;0;0;0;0
12.01.20;18:45:00;1;430;15189;0;2;0;14333;0;0;0;0;3;0;9690;0;0;0;0;4;0;10789;0;0;0;0;5;0;37239;2;0;0;0;0;0;6;0;28319;2;0;0;0;0;0;7;0;26584;0;0;0;0;8;0;25929;0;0;0;0;9;0;14056;0;0;0;0
12.01.20;18:40:00;1;414;15153;0;2;0;14333;0;0;0;0;3;0;9690;0;0;0;0;4;0;10789;0;0;0;0;5;0;37239;2;0;0;0;0;0;6;0;28319;2;0;0;0;0;0;7;0;26584;0;0;0;0;8;0;25929;0;0;0;0;9;0;14056;0;0;0;0
12.01.20;18:35:00;1;414;15119;0;2;0;14333;0;0;0;0;3;0;9690;0;0;0;0;4;0;10789;0;0;0;0;5;0;37239;2;0;0;0;0;0;6;0;28319;2;0;0;0;0;0;7;0;26584;0;0;0;0;8;0;25929;0;0;0;0;9;0;14056;0;0;0;0
12.01.20;18:30:00;1;413;15084;0;2;0;14333;0;0;0;0;3;0;9690;0;0;0;0;4;0;10789;0;0;0;0;5;0;37239;2;0;0;0;0;0;6;0;28319;2;0;0;0;0;0;7;0;26584;0;0;0;0;8;0;25929;0;0;0;0;9;0;14056;0;0;0;0
12.01.20;18:25:00;1;430;15050;0;2;0;14333;0;0;0;0;3;0;9690;0;0;0;0;4;0;10789;0;0;0;0;5;0;37239;2;0;0;0;0;0;6;0;28319;2;0;0;0;0;0;7;0;26584;0;0;0;0;8;0;25929;0;0;0;0;9;0;14056;0;0;0;0
12.01.20;18:20:00;1;433;15013;0;2;0;14333;0;0;0;0;3;0;9690;0;0;0;0;4;0;10789;0;0;0;0;5;0;37239;2;0;0;0;0;0;6;0;28319;2;0;0;0;0;0;7;0;26584;0;0;0;0;8;0;25929;0;0;0;0;9;0;14056;0;0;0;0
12.01.20;18:15:00;1;447;14976;0;2;0;14333;0;0;0;0;3;0;9690;0;0;0;0;4;0;10789;0;0;0;0;5;0;37239;2;0;0;0;0;0;6;0;28319;2;0;0;0;0;0;7;0;26584;0;0;0;0;8;0;25929;0;0;0;0;9;0;14056;0;0;0;0
12.01.20;18:10:00;1;443;14939;0;2;0;14333;0;0;0;0;3;0;9690;0;0;0;0;4;0;10789;0;0;0;0;5;0;37239;2;0;0;0;0;0;6;0;28319;2;0;0;0;0;0;7;0;26584;0;0;0;0;8;0;25929;0;0;0;0;9;0;14056;0;0;0;0
12.01.20;18:05:00;1;463;14902;0;2;0;14333;0;0;0;0;3;0;9690;0;0;0;0;4;0;10789;0;0;0;0;5;0;37239;2;0;0;0;0;0;6;0;28319;2;0;0;0;0;0;7;0;26584;0;0;0;0;8;0;25929;0;0;0;0;9;0;14056;0;0;0;0
12.01.20;18:00:00;1;482;14863;0;2;0;14333;0;0;0;0;3;0;9690;0;0;0;0;4;0;10789;0;0;0;0;5;0;37239;2;0;0;0;0;0;6;0;28319;2;0;0;0;0;0;7;0;26584;0;0;0;0;8;0;25929;0;0;0;0;9;0;14056;0;0;0;0
12.01.20;17:55:00;1;488;14823;0;2;0;14333;0;0;0;0;3;0;9690;0;0;0;0;4;0;10789;0;0;0;0;5;0;37239;2;0;0;0;0;0;6;0;28319;2;0;0;0;0;0;7;0;26584;0;0;0;0;8;0;25929;0;0;0;0;9;0;14056;0;0;0;0
12.01.20;17:50:00;1;555;14781;0;2;0;14333;0;0;0;0;3;0;9690;0;0;0;0;4;0;10789;0;0;0;0;5;0;37239;2;0;0;0;0;0;6;0;28319;2;0;0;0;0;0;7;0;26584;0;0;0;0;8;0;25929;0;0;0;0;9;0;14056;0;0;0;0
12.01.20;17:45:00;1;535;14734;0;2;0;14333;0;0;0;0;3;0;9690;0;0;0;0;4;0;10789;0;0;0;0;5;0;37239;2;0;0;0;0;0;6;0;28319;2;0;0;0;0;0;7;0;26584;0;0;0;0;8;0;25929;0;0;0;0;9;0;14056;0;0;0;0
12.01.20;17:40:00;1;503;14689;0;2;0;14333;0;0;0;0;3;0;9690;0;0;0;0;4;0;10789;0;0;0;0;5;0;37239;2;0;0;0;0;0;6;0;28319;2;0;0;0;0;0;7;0;26584;0;0;0;0;8;0;25929;0;0;0;0;9;0;14056;0;0;0;0
12.01.20;17:35:00;1;502;14647;0;2;0;14333;0;0;0;0;3;0;9690;0;0;0;0;4;0;10789;0;0;0;0;5;0;37239;2;0;0;0;0;0;6;0;28319;2;0;0;0;0;0;7;0;26584;0;0;0;0;8;0;25929;0;0;0;0;9;0;14056;0;0;0;0
12.01.20;17:30:00;1;503;14604;0;2;0;14333;0;0;0;0;3;0;9690;0;0;0;0;4;0;10789;0;0;0;0;5;0;37239;2;0;0;0;0;0;6;0;28319;2;0;0;0;0;0;7;0;26584;0;0;0;0;8;0;25929;0;0;0;0;9;0;14056;0;0;0;0
12.01.20;17:25:00;1;628;14563;0;2;0;14333;0;0;0;0;3;0;9690;0;0;0;0;4;0;10789;0;0;0;0;5;0;37239;2;0;0;0;0;0;6;0;28319;2;0;0;0;0;0;7;0;26584;0;0;0;0;8;0;25929;0;0;0;0;9;0;14056;0;0;0;0
12.01.20;17:20:00;1;1118;14505;0;2;0;14333;0;0;0;0;3;0;9690;0;0;0;0;4;0;10789;0;0;0;0;5;0;37239;2;0;0;0;0;0;6;0;28319;2;0;0;0;0;0;7;0;26584;0;0;0;0;8;0;25929;0;0;0;0;9;0;14056;0;0;0;0
12.01.20;17:15:00;1;775;14411;0;2;0;14333;0;0;0;0;3;0;9690;0;0;0;0;4;0;10789;0;0;0;0;5;0;37239;2;0;0;0;0;0;6;0;28319;2;0;0;0;0;0;7;0;26584;0;0;0;0;8;0;25929;0;0;0;0;9;0;14056;0;0;0;0
12.01.20;17:10:00;1;750;14345;0;2;0;14333;0;0;0;0;3;0;9690;0;0;0;0;4;0;10789;0;0;0;0;5;0;37239;2;0;0;0;0;0;6;0;28319;2;0;0;0;0;0;7;0;26584;0;0;0;0;8;0;25929;0;0;0;0;9;0;14056;0;0;0;0
12.01.20;17:05:00;1;747;14286;0;2;0;14333;0;0;0;0;3;0;9690;0;0;0;0;4;0;10789;0;0;0;0;5;0;37239;2;0;0;0;0;0;6;0;28319;2;0;0;0;0;0;7;0;26584;0;0;0;0;8;0;25929;0;0;0;0;9;0;14056;0;0;0;0
12.01.20;17:00:00;1;734;14223;0;2;0;14333;0;0;35;1;3;0;9690;0;0;114;6;4;0;10789;0;0;0;0;5;0;37239;2;0;0;0;0;0;6;0;28319;2;0;0;0;0;0;7;0;26584;0;0;0;0;8;0;25929;0;0;0;0;9;0;14056;0;0;0;0
12.01.20;16:55:00;1;363;14164;0;2;0;14333;6;0;283;13;3;0;9690;6;0;311;16;4;0;10789;0;0;9;1;5;0;37239;2;0;0;0;0;0;6;0;28319;0;0;0;0;0;0;7;0;26584;0;0;0;0;8;0;25929;0;0;0;0;9;0;14056;0;0;0;0
12.01.20;16:50:00;1;304;14135;0;2;0;14333;6;0;329;14;3;0;9690;6;0;396;16;4;0;10789;2;0;81;11;5;0;37239;2;0;4;131;130;13;6;0;28319;2;1;0;25;38;3;7;0;26584;0;0;0;0;8;0;25929;0;0;0;0;9;0;14056;0;0;0;0
12.01.20;16:45:00;1;264;14109;0;2;0;14333;6;0;356;14;3;0;9690;6;2;425;17;4;0;10789;1;0;112;12;5;0;37239;2;0;0;335;336;24;6;0;28319;23;8;1;180;456;22;7;0;26584;0;0;103;7;8;0;25929;0;0;104;7;9;0;14056;0;0;216;10
12.01.20;16:40:00;1;265;14087;0;2;0;14333;6;0;377;15;3;0;9690;6;1;454;17;4;0;10789;1;0;146;12;5;0;37239;23;0;0;407;481;24;6;0;28319;23;7;2;242;537;23;7;0;26584;6;0;305;19;8;0;25929;6;0;201;12;9;0;14056;6;0;321;13
12.01.20;16:35:00;1;369;14065;0;2;0;14333;6;0;396;15;3;1;9690;6;2;476;17;4;0;10789;1;0;184;13;5;12;37239;1;0;0;407;631;25;6;0;28319;23;9;1;263;568;23;7;0;26584;6;0;373;19;8;0;25929;6;0;366;19;9;0;14056;6;0;396;14
12.01.20;16:30:00;1;348;14033;0;2;3;14333;6;7;406;16;3;1;9690;6;4;498;18;4;0;10789;1;0;223;13;5;48;37238;1;2;7;406;645;26;6;32;28319;1;9;28;520;499;24;7;0;26584;6;2;421;20;8;0;25929;6;1;364;16;9;1;14056;3;2;457;14
12.01.20;16:25:00;1;429;14004;0;2;8;14333;6;14;416;17;3;4;9690;3;15;489;18;4;0;10789;3;0;199;14;5;100;37234;4;23;27;391;622;26;6;68;28316;4;26;42;480;456;25;7;0;26584;6;8;469;20;8;2;25929;6;9;473;20;9;0;14056;6;5;518;14
12.01.20;16:20:00;1;473;13967;0;2;59;14332;4;93;365;17;3;6;9690;6;11;541;18;4;10;10789;3;10;199;14;5;150;37226;4;48;48;391;622;26;6;101;28310;4;47;69;480;456;25;7;30;26584;6;50;436;21;8;26;25929;6;50;432;20;9;3;14056;6;6;446;12
12.01.20;16:15:00;1;512;13928;0;2;101;14327;4;134;370;18;3;24;9689;6;40;533;19;4;44;10788;3;46;197;14;5;210;37213;4;87;80;391;623;27;6;141;28302;4;57;72;480;456;25;7;78;26582;4;122;435;21;8;72;25927;4;110;449;21;9;8;14055;6;12;556;15
12.01.20;16:10:00;1;523;13885;0;2;198;14319;4;237;393;19;3;99;9687;4;141;515;20;4;100;10784;3;104;217;15;5;307;37195;4;135;121;391;623;27;6;207;28289;4;96;114;480;456;25;7;190;26575;4;241;469;22;8;157;25920;4;194;443;21;9;60;14055;6;85;504;16
12.01.20;16:05:00;1;560;13841;0;2;273;14303;4;314;396;19;3;148;9679;4;190;532;20;4;161;10776;5;167;233;15;5;394;37169;4;181;162;400;622;27;6;290;28271;4;146;178;482;510;25;7;293;26560;4;344;483;22;8;220;25908;4;257;447;22;9;97;14050;4;128;503;17
12.01.20;16:00:00;1;597;13795;0;2;378;14280;4;423;393;20;3;201;9667;4;244;517;20;4;217;10763;5;226;239;15;5;521;37135;4;239;221;413;652;27;6;426;28246;4;206;228;572;567;25;7;440;26535;4;489;487;23;8;298;25889;4;344;483;22;9;102;14042;4;131;440;14
12.01.20;15:55:00;1;585;13745;0;2;347;14248;4;394;403;21;3;185;9650;4;223;439;21;4;225;10745;5;234;234;16;5;547;37091;4;265;228;404;618;27;6;433;28210;4;207;236;572;561;25;7;418;26499;4;457;479;23;8;336;25865;4;379;476;23;9;140;14032;4;173;533;18
12.01.20;15:50:00;1;579;13696;0;2;796;14219;4;853;391;22;3;426;9634;4;471;442;22;4;362;10726;5;377;252;16;5;1084;37043;4;528;466;424;680;28;6;827;28173;4;399;417;594;577;26;7;904;26464;4;959;492;24;8;647;25837;4;693;443;23;9;199;14020;4;236;553;18
12.01.20;15:45:00;1;556;13647;0;2;957;14154;4;1021;392;23;3;526;9599;4;576;439;22;4;430;10696;5;447;256;16;5;1335;36950;4;663;576;433;700;28;6;1045;28102;4;543;549;603;578;26;7;1204;26389;4;1272;497;25;8;920;25784;4;974;433;24;9;245;14003;4;286;556;19
12.01.20;15:40:00;1;511;13601;0;2;757;14075;4;813;390;24;3;411;9556;4;459;430;22;4;434;10660;5;451;250;16;5;1167;36841;4;583;496;419;687;28;6;884;28016;4;452;473;592;571;26;7;1009;26292;4;1068;489;25;8;844;25709;4;899;432;25;9;250;13983;4;289;490;19
12.01.20;15:35:00;1;511;13558;0;2;1251;14012;4;1327;396;25;3;679;9522;4;736;444;23;4;555;10624;5;578;252;17;5;1769;36743;4;907;764;429;704;29;6;1338;27941;4;695;707;602;580;26;7;1682;26207;4;1774;489;26;8;1422;25638;4;1493;446;25;9;284;13962;4;314;365;20
12.01.20;15:30:00;1;2522;13496;0;2;1594;13909;4;1683;397;26;3;887;9466;4;949;448;24;4;634;10578;5;660;257;17;5;2295;36587;4;1211;995;439;701;29;6;1748;27824;4;881;868;607;590;26;7;2416;26069;4;2529;497;26;8;2141;25521;4;2237;452;26;9;527;13938;4;566;357;21
12.01.20;15:25:00;1;3312;13267;0;2;1152;13776;4;1224;387;26;3;632;9392;4;689;447;24;4;565;10525;5;589;253;17;5;1760;36399;4;883;728;427;703;29;6;1324;27681;4;666;670;603;576;26;7;1682;25867;4;1777;486;27;8;1225;25302;0;1289;373;21;9;526;13895;4;567;372;21
12.01.20;15:20:00;1;2560;13002;0;2;1392;13679;4;1477;406;27;3;753;9339;4;812;443;25;4;633;10478;5;660;257;17;5;2076;36251;4;1085;899;428;684;29;6;1588;27568;4;814;819;605;582;27;7;1998;25726;4;2097;487;27;8;1904;25207;4;2008;480;27;9;595;13851;4;637;335;19
12.01.20;15:15:00;1;2538;12789;0;2;1518;13564;4;1610;409;28;3;834;9276;4;895;453;25;4;666;10425;5;694;255;18;5;2218;36076;4;1158;972;426;696;30;6;1682;27436;4;834;838;598;581;27;7;2085;25562;4;2195;489;28;8;2000;25049;4;2103;478;27;9;836;13791;4;893;439;23
12.01.20;15:10:00;1;2521;12578;0;2;1627;13438;4;1722;407;29;3;940;9207;4;1006;478;26;4;688;10370;5;717;257;18;5;2381;35890;4;1249;1029;429;692;30;6;1805;27295;4;923;925;596;581;27;7;2228;25388;4;2335;485;28;8;2167;24883;4;2283;483;28;9;993;13721;4;1058;472;24
12.01.20;15:05:00;1;2775;12360;0;2;2262;13302;4;2391;412;30;3;1376;9129;4;1463;499;27;4;816;10312;5;850;254;18;5;3341;35688;4;1787;1460;434;700;30;6;2527;27142;4;1282;1267;605;583;27;7;3158;25202;4;3308;487;29;8;3069;24705;4;3219;481;28;9;1178;13640;4;1245;397;20
12.01.20;15:00:00;1;2545;12138;0;2;2422;13115;4;2557;412;31;3;1523;9015;4;1619;513;27;4;840;10245;5;875;246;18;5;3570;35412;4;1940;1574;438;692;30;6;2737;26930;4;1389;1374;606;586;27;7;3401;24941;4;3566;485;29;8;3367;24449;4;3535;478;28;9;1149;13514;4;1219;334;17
12.01.20;14:55:00;1;2997;11909;0;2;2560;12914;4;2700;413;31;3;1644;8888;4;1750;529;27;4;847;10174;5;882;247;19;5;3852;35112;4;2100;1690;432;704;31;6;2924;26702;4;1513;1486;605;584;27;7;2304;24658;4;2434;374;23;8;2933;24168;4;3075;486;29;9;1348;13373;4;1427;426;21
12.01.20;14:50:00;1;2549;11673;0;2;2483;12701;4;2619;409;31;3;1617;8752;4;1717;518;28;4;804;10104;5;838;250;19;5;3873;34790;4;2089;1692;431;693;31;6;2929;26458;4;1485;1465;603;578;27;7;3300;24419;4;3457;489;30;8;3199;23925;4;3360;476;29;9;1412;13204;0;1499;447;23
12.01.20;14:45:00;1;2580;11461;0;2;2595;12493;4;2736;413;32;3;1679;8616;4;1782;521;28;4;799;10037;5;832;242;19;5;3720;34466;4;2015;1629;436;690;31;6;3078;26214;4;1553;1545;613;588;27;7;3788;24143;4;3980;482;30;8;3649;23657;4;3820;484;29;9;1971;13094;4;2105;511;28
12.01.20;14:40:00;1;2540;11246;0;2;2746;12276;4;2894;409;32;3;1779;8476;4;1887;516;28;4;804;9970;5;838;232;19;5;4367;34140;4;2366;1933;432;701;31;6;3304;25962;4;1692;1663;601;583;28;7;3983;23828;4;4182;482;30;8;3770;23355;4;3957;471;30;9;2112;12930;4;2233;526;28
12.01.20;14:35:00;1;2510;11034;0;2;2760;12047;4;2914;411;32;3;1786;8328;4;1895;516;28;4;855;9903;5;891;240;19;5;4529;33773;4;2467;2007;433;695;31;6;3434;25685;4;1758;1720;605;581;28;7;3722;23496;4;3914;476;30;8;3806;23039;4;3989;474;30;9;2118;12754;4;2243;524;28
12.01.20;14:30:00;1;2499;10823;0;2;2801;11817;4;2953;406;32;3;1808;8179;4;1918;519;28;4;869;9832;5;905;233;20;5;4207;33405;4;2249;1887;428;691;31;6;3259;25401;4;1697;1632;597;577;28;7;3141;23199;4;3294;385;25;8;3860;22733;4;4049;482;30;9;2128;12581;4;2255;541;29
12.01.20;14:25:00;1;2496;10613;0;2;2820;11584;4;2975;405;32;3;1824;8029;4;1935;516;28;4;861;9759;5;897;214;20;5;4723;33017;4;2586;2083;426;688;31;6;3575;25110;4;1840;1801;597;575;28;7;3246;22875;4;3402;377;24;8;4008;22404;4;4201;480;30;9;2189;12400;4;2317;530;29
12.01.20;14:20:00;1;2495;10404;0;2;2798;11349;4;2953;400;32;3;1853;7877;4;1960;516;28;4;906;9687;5;944;204;20;5;4936;32624;4;2701;2194;425;691;32;6;3739;24811;4;1933;1883;597;575;28;7;4120;22536;4;4322;472;31;8;3136;22005;0;3289;389;25;9;1911;12220;4;2022;432;24
12.01.20;14:15:00;1;4109;10196;0;2;2925;11116;4;3082;408;33;3;1887;7722;4;2000;518;28;4;955;9612;5;994;205;21;5;5076;32213;4;2789;2247;425;687;32;6;3843;24499;4;1978;1931;599;577;28;7;3254;22196;4;3428;484;31;8;2886;21755;4;3034;509;31;9;1054;11945;0;1126;336;17